Regional Weather Roundup
Issued by NWS

Home | Current Version | Previous Version | Graphics & Text | Print | Product List | Glossary On
Versions: 1 2 3 4 5 6 7 8 9 10 11 12 13 14 15 16 17 18 19 20 21 22 23 24 25 26 27 28 29 30 31 32 33 34 35 36 37 38 39 40 41 42 43 44 45 46 47 48 49 50
000
ASUS43 KFSD 261002
RWRSD

WEATHER ROUNDUP FOR SOUTH DAKOTA
NATIONAL WEATHER SERVICE SIOUX FALLS SD
400 AM CST THU FEB 26 2015

NOTE: "FAIR" INDICATES FEW OR NO CLOUDS BELOW 12,000 FEET WITH NO
SIGNIFICANT WEATHER AND/OR OBSTRUCTIONS TO VISIBILITY.


SDZ001>005-009-010-012>017-261100-
NORTHWEST AND NORTH CENTRAL SOUTH DAKOTA

CITY           SKY/WX    TMP DP  RH WIND       PRES   REMARKS
BUFFALO          N/A     -7 -13  75 W6        30.32S WCI -20
FAITH            N/A     -3 -10  72 N13       30.41S WCI -22
MOBRIDGE       CLEAR     -7 -13  75 NW12      30.45S WCI -26
$$

SDZ012>016-024>037-041>051-057-063-072>074-261100-
SOUTHWEST AND SOUTH CENTRAL SOUTH DAKOTA

CITY           SKY/WX    TMP DP  RH WIND       PRES   REMARKS
RAPID CTY ARPT CLOUDY     4   0  83 N13       30.35S WCI -13
PIERRE         CLEAR     -4  -9  79 NW10      30.47F WCI -21
CUSTER         CLOUDY    -2  -8  76 CALM      30.11S
PHILIP         CLOUDY     4  -2  76 NE6       30.45S WCI  -7
PINE RIDGE     LGT SNOW   8   3  80 NE6       30.32F WCI  -2
WINNER         CLOUDY     0  -9  65 N12       30.45R WCI -17
$$

SDZ004>011-016>023-039-040-261100-
NORTHEAST SOUTH DAKOTA

CITY           SKY/WX    TMP DP  RH WIND       PRES   REMARKS
ABERDEEN       CLEAR     -8 -14  74 NW10      30.49R WCI -26
WATERTOWN      CLEAR    -10 -15  78 NW6       30.37S WCI -23
SISSETON         N/A    -10 -14  82 N10       30.45S WCI -29
$$

SDZ017-020-022-023-036>040-048>070-261100-
SOUTHEAST SOUTH DAKOTA

CITY           SKY/WX    TMP DP  RH WIND       PRES   REMARKS
SIOUX FALLS    CLEAR     -5 -11  75 N13       30.39R WCI -24
HURON          CLEAR    -13 -18  78 NW10      30.48S WCI -32
MITCHELL       CLEAR     -5 -10  79 NW14      30.48R WCI -25
YANKTON        CLEAR     -2  -8  78 NW12      30.46R WCI -20
$$

ABBREVIATIONS USED IN REMARKS
   TC - TEMPERATURE IN CELSIUS
  WCI - WIND CHILL INDEX
   HX - HEAT INDEX
  VSB - VISIBILITY



USA.gov is the U.S. government's official web portal to all federal, state and local government web resources and services.